Preview of NWS' New Version of Forecast
This preview is not operational and should not be used for support decisions.

Regional Weather Roundup (RWR)

Issued by National Weather Service (NWS)

                            
000
ASUS45 KBOI 220210
RWRID 

IDAHO REGIONAL WEATHER ROUNDUP
NATIONAL WEATHER SERVICE BOISE ID
800 PM MDT SUN APR 21 2019

NOTE: "FAIR" INDICATES FEW OR NO CLOUDS BELOW 12000 FEET
WITH NO SIGNIFICANT WEATHER AND/OR OBSTRUCTIONS TO VISIBILITY

IDZ012-014-220300-
SOUTHWEST IDAHO

  
CITY           SKY/WX    TMP DP  RH WIND       PRES   REMARKS
BOISE          CLEAR     63  37  38 NW17G30   30.00R                  
CALDWELL       CLEAR     63  37  38 NW17      30.03R                  
MOUNTAIN HOME  CLEAR     62  37  40 NW23G32   29.98R                  
$$

IDZ016-017-220300-
SOUTHCENTRAL IDAHO

  
CITY           SKY/WX    TMP DP  RH WIND       PRES   REMARKS
BURLEY         CLOUDY    50  46  86 S5        30.03R                  
JEROME         CLOUDY    53  46  77 SE9       30.02R                  
TWIN FALLS     CLOUDY    53  45  74 NW6       30.02S                  
$$

IDZ019>023-220300-
SOUTHEAST IDAHO

  
CITY           SKY/WX    TMP DP  RH WIND       PRES   REMARKS
IDAHO FALLS    CLOUDY    48  38  68 NE13      30.04R                  
POCATELLO      CLOUDY    48  46  93 W7        30.03S                  
REXBURG        CLOUDY    48  37  65 NE12      30.04R                  
$$

IDZ006-010-011-018-031-032-220300-
CENTRAL IDAHO MOUNTAINS

  
CITY           SKY/WX    TMP DP  RH WIND       PRES   REMARKS
MCCALL         CLEAR     47  31  53 N10       30.11R                  
HAILEY         MOCLDY    48  45  87 SE8       30.06R                  
STANLEY          N/A     44  30  57 CALM      30.11R                  
SALMON         CLOUDY    54  36  50 N15       30.09R                  
CHALLIS        CLOUDY    54  34  46 N12       30.07R                  
$$

IDZ002-004-006-007-026-220300-
NORTHERN IDAHO

  
CITY           SKY/WX    TMP DP  RH WIND       PRES   REMARKS
LEWISTON       CLEAR     63  34  33 NW10      30.14S                  
LOWELL           N/A     52  51  97 CALM      30.16S                  
COEUR D'ALENE  PTCLDY    61  38  42 W7        30.13S                  
MULLAN PASS    PTCLDY    42  29  59 NW5       30.17R                  
$$